This is the latest recevied weather packets stored in our database for station/object K7DC. If no packets are shown the sender has not sent any weather packets the latest 10 day(s).
| Time | Temp. | Humidity | Pressure | Rain* | Wind** | Luminosity | Snow |
|---|---|---|---|---|---|---|---|
| 1777772786 | 28.33° C | 23% | 1011.6 hPa | 0 mm | - | 19 W/m² | - |
| 1777771879 | 28.89° C | 23% | 1011.7 hPa | 0 mm | - | 39 W/m² | - |
| 1777770667 | 28.89° C | 22% | 1011.9 hPa | 0 mm | - | 41 W/m² | - |
| 1777769455 | 30° C | 21% | 1011.8 hPa | 0 mm | - | 68 W/m² | - |
| 1777768545 | 30.56° C | 19% | 1011.5 hPa | 0 mm | - | 162 W/m² | - |
| 1777767939 | 30.56° C | 20% | 1011.9 hPa | 0 mm | - | 231 W/m² | - |
| 1777766727 | 30.56° C | 19% | 1011.7 hPa | 0 mm | - | 250 W/m² | - |
| 1777764913 | 30.56° C | 19% | 1011.6 hPa | 0 mm | - | 164 W/m² | - |
| 1777761277 | 30.56° C | 19% | 1012.2 hPa | 0 mm | - | 450 W/m² | - |
| 1777760975 | 31.67° C | 19% | 1012.4 hPa | 0 mm | - | 228 W/m² | - |
| 1777760672 | 32.22° C | 18% | 1012.6 hPa | 0 mm | - | 225 W/m² | - |
| 1777760368 | 33.89° C | 17% | 1012.4 hPa | 0 mm | - | 614 W/m² | - |
| 1777760065 | 32.78° C | 17% | 1012.2 hPa | 0 mm | - | 627 W/m² | - |
| 1777759762 | 31.67° C | 18% | 1012.6 hPa | 0 mm | - | 656 W/m² | - |
| 1777759458 | 31.67° C | 19% | 1012.7 hPa | 0 mm | - | 616 W/m² | - |
| 1777758853 | 31.11° C | 20% | 1013 hPa | 0 mm | - | 656 W/m² | - |
| 1777758549 | 31.67° C | 19% | 1013 hPa | 0 mm | - | 692 W/m² | - |
| 1777758245 | 31.11° C | 20% | 1013.1 hPa | 0 mm | - | 719 W/m² | - |
| 1777757943 | 31.11° C | 19% | 1012.9 hPa | 0 mm | - | 681 W/m² | - |
| 1777757640 | 31.67° C | 19% | 1013.3 hPa | 0 mm | - | 686 W/m² | - |
| 1777757339 | 31.11° C | 19% | 1013.3 hPa | 0 mm | - | 790 W/m² | - |
| 1777757037 | 32.22° C | 19% | 1013.5 hPa | 0 mm | - | 773 W/m² | - |
| 1777756734 | 32.22° C | 18% | 1013.7 hPa | 0 mm | - | 854 W/m² | - |
| 1777756429 | 31.11° C | 19% | 1013.7 hPa | 0 mm | - | 862 W/m² | - |
| 1777756127 | 30° C | 21% | 1013.5 hPa | 0 mm | - | 871 W/m² | - |
* Rain latest hour (hover to see other rain measurements)
** Current wind speed in m/s (hover to see current wind gust speed)